Location: Nebula Knoll Observatory
(43.6666°N, 71.0000°W)
Time: 14:06:18
(UTC-05:00)

Daily predictions for brighter satellites

Satellite Brightness Start Highest point End
(mag) Time Altitude Azimuth Time Altitude Azimuth Time Altitude Azimuth
USA 215 4.1 17:46:22 10° NE 17:52:34 48° NNW 17:58:45 10° W
Cosmos 1812 3.4 17:50:40 10° NNW 17:54:30 61° W 17:58:18 10° S
COSMO-SKYMED 1 2.6 17:50:11 10° NNE 17:54:34 80° ESE 17:58:54 10° S
Cosmos 2360 Rocket 2.2 17:50:35 10° NNW 17:56:15 69° ENE 18:01:53 10° SSE
Cosmos 2219 Rocket 3.4 17:52:01 10° N 17:56:17 22° NE 18:00:31 10° E
Resurs 01 Rocket 2.8 17:56:49 10° ESE 18:00:15 23° ENE 18:03:41 10° NNE
Cosmos 2219 4.0 17:58:27 10° SSE 18:03:23 30° ESE 18:08:19 10° NE
BREEZE-M DEB (TANK) 4.2 18:02:40 10° SSW 18:06:14 21° SSE 18:08:19 10° E
BREEZE-M DEB (TANK) 3.3 18:04:06 10° NW 18:06:46 49° NNE 18:12:59 10° E
Cosmos 1954 Rocket 4.0 18:02:14 10° SSW 18:07:24 77° ESE 18:12:39 10° NNE
Cosmos 2181 Rocket 4.1 18:01:43 10° N 18:07:56 62° E 18:14:13 10° SSE
Cosmos 1536 3.6 18:04:43 10° SSE 18:08:10 29° E 18:11:37 10° NNE
Okean 1 3.9 18:06:19 10° NNW 18:10:22 65° W 18:14:23 10° S
HJ-1C 4.1 18:12:15 10° SE 18:15:16 32° ENE 18:18:19 10° N
SL-16 R/B 4.2 18:15:31 10° NNE 18:16:28 10° NE 18:17:25 10° NE
Cosmos 1709 Rocket 4.0 18:13:08 10° S 18:19:20 85° E 18:25:31 10° N
Cosmos 2074 Rocket 4.4 18:14:47 10° SSE 18:20:28 38° E 18:26:12 10° NNE
Okean 1 Rocket 3.1 18:20:06 10° S 18:24:30 58° E 18:28:55 10° NNE
Cosmos 2184 Rocket 4.4 18:19:51 10° SSE 18:25:39 40° E 18:31:25 10° NNE
Cosmos 1602 3.7 18:23:45 10° S 18:27:38 88° WNW 18:31:35 10° N
Meteor 1-11 Rocket 3.8 18:23:28 10° S 18:29:15 75° E 18:35:12 10° NNE
Cosmos 1340 3.6 18:27:59 10° NNW 18:31:42 52° W 18:35:22 10° S
Cosmos 1025 Rocket 3.3 18:30:05 10° N 18:34:20 46° ENE 18:38:33 10° SSE
ALOS 2.2 18:30:52 10° SSE 18:35:29 67° ENE 18:40:09 10° N
USA 186 3.9 18:38:05 11° NNE 18:38:05 11° NNE 18:38:21 10° NNE
SAR-Lupe-4 4.5 18:35:40 19° ESE 18:37:18 28° ENE 18:40:24 10° N
Cosmos 2333 Rocket 2.9 18:32:58 10° N 18:38:13 35° NE 18:41:50 18° ESE
SL-08 ROCKET BODY 4.5 18:32:32 10° S 18:38:34 59° E 18:44:38 10° NNE
FENGYUN 3A 3.6 18:44:30 10° SSE 18:49:56 87° ENE 18:55:24 10° NNW
Abrixas rocket 2.4 18:48:46 10° SW 18:52:04 55° SSE 18:52:57 40° E
Cosmos 1544 Rocket 4.3 18:49:14 10° SSE 18:52:58 29° E 18:56:43 10° NNE
FREGAT/IRIS 4.3 18:50:36 10° SSW 18:53:29 37° W 18:56:24 10° NNW
Cosmos 1741 Rocket 4.0 18:48:46 10° SSW 18:53:59 89° WNW 18:59:15 10° NNE
NOSS 0 Rocket 4.2 18:48:21 10° NNW 18:54:19 48° ENE 18:58:02 22° ESE
Cosmos 2285 Rocket 4.0 18:48:03 10° NNW 18:54:29 68° ENE 19:00:51 10° SSE
Cosmos 2154 Rocket 4.5 18:49:17 10° SSE 18:54:59 36° E 19:00:41 10° NNE
Cosmos 1763 Rocket 4.5 18:51:28 10° N 18:55:43 25° ENE 18:56:18 25° ENE
Genesis I 4.2 18:51:55 10° NW 18:55:43 47° WSW 18:59:29 10° SSE
GEOS 3 Rocket 3.8 18:51:19 13° NE 18:55:53 51° ESE 19:01:00 10° SSW
Okean 1-7 Rocket 3.7 18:52:13 10° N 18:56:44 77° W 19:01:12 10° S
GPS 2-04 Rocket1 4.2 18:57:13 10° SW 19:00:48 26° S 19:01:59 23° SE
FengYun 1-2 T 4.4 18:58:32 10° S 19:03:59 74° WSW 19:09:32 10° NNW
Meteor 1-5 Rocket 4.2 18:58:22 10° S 19:04:19 77° E 19:10:12 10° NNE
ATLAS CENTAUR R/B 3.2 19:12:37 10° SSW 19:14:33 20° S 19:14:33 20° S
Cosmos 405 Rocket 2.7 19:18:30 10° N 19:22:35 85° ENE 19:23:33 52° SSE
Cosmos 468 Rocket 3.9 19:17:48 10° NNW 19:23:04 77° ENE 19:25:21 35° SSE
USA 229 DEB 3.9 19:17:11 10° NW 19:24:19 75° WSW 19:29:53 18° SSE
USA 229 3.9 19:17:17 10° NW 19:24:25 76° WSW 19:29:56 19° SSE
Helios 1A 2.8 19:23:44 38° SSE 19:25:16 90° SSE 19:29:28 10° NNW
Okean 2 3.6 19:21:54 10° NNW 19:26:04 70° W 19:29:22 16° S
CZ-2D R/B 3.5 19:24:00 22° S 19:26:17 65° W 19:30:06 10° NNW
Cosmos 2237 Rocket 2.2 19:21:21 10° NNW 19:27:00 59° ENE 19:28:14 48° ESE
H-2A R/B 3.7 19:24:03 10° S 19:27:37 45° W 19:31:15 10° NNW
Spot 2 Rocket 4.2 19:22:43 10° S 19:27:39 54° W 19:32:39 10° NNW
COSMOS 2428 3.6 19:22:45 10° NW 19:28:12 48° WSW 19:33:37 10° S
Helios 1B rocket 2.3 19:24:35 10° NNE 19:28:46 78° ESE 19:32:54 10° S
Gbstr 26 Del rocket 3.5 19:25:20 10° W 19:28:56 43° NNW 19:29:29 40° N
Cosmos 1066 Rocket 4.4 19:24:50 10° N 19:30:18 48° ENE 19:30:18 48° ENE
Cosmos 2297 Rocket 4.0 19:25:14 10° S 19:26:20 15° SSE 19:26:20 15° SSE
Resurs 01 Rocket 3.1 19:32:26 10° SSW 19:36:30 37° W 19:40:37 10° NNW
Meteor 2-8 Rocket 4.5 19:30:49 10° N 19:36:44 51° ENE 19:36:57 51° E
NOSS 3-1 (A) 4.1 19:29:37 10° NNW 19:36:58 57° NE 19:39:19 43° E
Cosmos 2219 Rocket 2.4 19:35:11 10° NNW 19:40:45 67° WSW 19:43:37 29° S
ATLAS 2AS CENTAUR R/B 4.1 19:35:18 10° NNW 19:42:07 28° NNE 19:43:50 26° NE
Cosmos 1814 Rocket 3.8 19:37:45 10° NNW 19:42:57 86° ENE 19:43:32 71° SSE
ERS-1 Rocket 4.0 19:45:15 32° NNE 19:45:15 32° NNE 19:48:19 10° N
Envisat 2.8 19:44:07 72° ENE 19:44:07 72° ENE 19:49:07 10° N
USA 32 4.1 19:40:46 10° N 19:45:17 60° NE 19:45:17 60° NE
Cosmos 2219 4.3 19:41:53 10° SW 19:47:20 43° WNW 19:52:48 10° NNE
Cosmos 2227 Rocket 2.3 19:44:52 10° SSW 19:49:27 57° SSE 19:49:27 57° SSE
NOSS 3-1 (C) 3.9 19:47:58 10° NW 19:55:33 83° NE 19:57:53 52° SE
SL-16 R/B 2.9 19:56:31 10° NNW 20:00:38 41° NNE 20:00:38 41° NNE
H-2A R/B 4.5 20:21:53 13° NNE 20:21:53 13° NNE 20:22:33 10° N
Cosmos 2333 Rocket 3.4 20:17:13 10° NW 20:22:31 39° WSW 20:23:54 34° SW
Cosmos 2237 Rocket 4.3 21:06:24 10° NW 21:10:07 21° W 21:10:07 21° W
ATLAS 2AS CENTAUR R/B 4.0 21:26:19 10° NW 21:31:17 41° NNW 21:31:17 41° NNW
